This demonstration page uses our WeatherBlox Daily Observations layout. Learn more.

Hourly Observations for September 16, 2016

Temp ( °F °C ) Dew Point ( °F °C ) Humidity (%) Winds ( mph kmh ) Pressure ( in mb ) Visibility ( mi km ) Precip ( " mm )
12:15 am 00:15 Partly Cloudy 59 15.1 57 13.8 92 92 W 3 6 29.94 1014 10 16.09344 0 0
12:35 am 00:35 Clear 59 15 57 13.7 92 92 Calm 29.97 1015 10 16.09344 0 0
12:55 am 00:55 Clear 59 15.1 57 13.7 91 91 Calm 29.94 1014 10 16.09344 0 0
1:15 am 01:15 Clear 58 14.7 56 13.6 93 93 Calm 29.94 1014 10 16.09344 0 0
1:35 am 01:35 Clear 59 14.8 57 13.9 94 94 Calm 29.97 1015 10 16.09344 0 0
1:55 am 01:55 Clear 58 14.5 56 13.5 94 94 Calm 29.97 1015 10 16.09344 0 0
2:15 am 02:15 Clear 57 14.1 56 13.4 96 96 Calm 29.97 1015 10 16.09344 0 0
2:35 am 02:35 Clear 57 13.8 56 13.1 96 96 SSE 3 6 29.97 1015 10 16.09344 0 0
2:55 am 02:55 Clear 55 12.9 54 12.2 96 96 Calm 29.94 1014 10 16.09344 0 0
3:15 am 03:15 Clear 55 12.5 53 11.8 96 96 Calm 30 1016 10 16.09344 0 0
3:35 am 03:35 Clear 55 12.6 54 12 96 96 WNW 3 6 29.94 1014 7 11.265408 0 0
3:55 am 03:55 Clear 55 12.8 54 12.2 96 96 Calm 29.97 1015 10 16.09344 0 0
4:15 am 04:15 Clear 54 12.1 53 11.6 97 97 Calm 30 1016 7 11.265408 0 0
4:35 am 04:35 Clear 54 12.2 53 11.6 96 96 Calm 30 1016 10 16.09344 0 0
4:55 am 04:55 Clear 54 12.1 53 11.5 96 96 Calm 30 1016 10 16.09344 0 0
5:15 am 05:15 Clear 53 11.7 52 11.1 96 96 Calm 30 1016 10 16.09344 0 0
5:35 am 05:35 Mostly Cloudy with Mist and Fog 53 11.4 51 10.8 96 96 Calm 30 1016 1.75 2.816352 0 0
5:55 am 05:55 Mostly Cloudy with Mist and Fog 52 11.1 51 10.6 97 97 Calm 30 1016 0.75 1.207008 0 0
6:15 am 06:15 Mostly Cloudy with Mist and Fog 53 11.6 52 11.1 97 97 Calm 30 1016 1.5 2.414016 0 0
6:35 am 06:35 Clear 52 10.9 51 10.4 97 97 Calm 30.03 1017 7 11.265408 0 0
6:55 am 06:55 Clear with Mist and Fog 51 10.8 51 10.3 97 97 Calm 30.03 1017 4 6.437376 0 0
7:15 am 07:15 Clear with Mist and Fog 51 10.5 50 10 97 97 Calm 30.03 1017 4 6.437376 0 0
7:35 am 07:35 Sunny with Mist and Fog 51 10.6 50 10.1 97 97 W 3 6 30.03 1017 4 6.437376 0 0
7:55 am 07:55 Sunny 53 11.5 52 11 97 97 Calm 30.03 1017 7 11.265408 0 0
8:15 am 08:15 Sunny 54 12.1 53 11.6 97 97 W 6 9 30.03 1017 10 16.09344 0 0
8:35 am 08:35 Sunny 54 12.2 53 11.6 96 96 WNW 8 13 30.03 1017 10 16.09344 0 0
8:55 am 08:55 Sunny 55 12.7 53 11.7 94 94 NW 9 15 30.03 1017 10 16.09344 0 0
9:15 am 09:15 Sunny 58 14.2 54 12.2 88 88 NW 9 15 30 1016 10 16.09344 0 0
9:35 am 09:35 Sunny 59 15.1 53 11.7 80 80 NNW 8 13 30 1016 10 16.09344 0 0
9:55 am 09:55 Sunny 61 16.2 54 12.2 77 77 NNW 6 9 30 1016 10 16.09344 0 0
10:15 am 10:15 Sunny 63 17 53 11.9 72 72 N 5 7 29.97 1015 10 16.09344 0 0
10:35 am 10:35 Sunny 65 18.3 55 12.6 70 70 NNW 3 6 29.97 1015 10 16.09344 0 0
10:55 am 10:55 Sunny 66 19 54 12.1 64 64 NNW 6 9 29.97 1015 10 16.09344 0 0
11:35 am 11:35 Sunny 68 20.2 54 12.1 60 60 WNW 8 13 29.94 1014 10 16.09344 0 0
11:55 am 11:55 Sunny 69 20.6 53 11.5 56 56 NW 8 13 29.94 1014 10 16.09344 0 0
12:15 pm 12:15 Sunny 70 21.2 52 11 52 52 WNW 10 17 29.94 1014 10 16.09344 0 0
12:35 pm 12:35 Sunny 71 21.6 51 10.5 49 49 NW 9 15 29.94 1014 10 16.09344 0 0
12:55 pm 12:55 Sunny 72 22.1 50 10 46 46 WNW 9 15 29.94 1014 10 16.09344 0 0
1:15 pm 13:15 Sunny 72 22.4 50 10.1 46 46 NNW 9 15 29.94 1014 10 16.09344 0 0
1:35 pm 13:35 Sunny 73 22.8 50 10.1 45 45 NW 10 17 29.94 1014 10 16.09344 0 0
1:55 pm 13:55 Sunny 73 23 49 9.7 43 43 WNW 9 15 29.94 1014 10 16.09344 0 0
2:15 pm 14:15 Sunny 74 23.5 49 9.2 40 40 WNW 9 15 29.91 1013 10 16.09344 0 0
2:35 pm 14:35 Sunny 75 23.8 50 9.8 41 41 NNW 8 13 29.88 1012 10 16.09344 0 0
2:55 pm 14:55 Sunny 75 23.7 49 9.5 41 41 NW 7 11 29.88 1012 10 16.09344 0 0
3:15 pm 15:15 Sunny 75 24 48 9 39 39 NW 8 13 29.88 1012 10 16.09344 0 0
3:35 pm 15:35 Sunny 76 24.4 49 9.3 38 38 WNW 6 9 29.88 1012 10 16.09344 0 0
3:55 pm 15:55 Sunny 76 24.3 47 8.5 37 37 NNW 7 11 29.88 1012 10 16.09344 0 0
4:15 pm 16:15 Sunny 76 24.5 46 7.8 34 34 N 5 7 29.88 1012 10 16.09344 0 0
4:35 pm 16:35 Sunny 76 24.5 44 6.8 32 32 WNW 7 11 29.88 1012 10 16.09344 0 0
4:55 pm 16:55 Sunny 77 24.9 46 7.5 33 33 NNW 6 9 29.85 1011 10 16.09344 0 0
5:15 pm 17:15 Sunny 76 24.6 45 7.2 33 33 NNW 8 13 29.85 1011 10 16.09344 0 0
5:35 pm 17:35 Sunny 76 24.5 44 6.7 32 32 NNW 7 11 29.85 1011 10 16.09344 0 0
5:55 pm 17:55 Sunny 76 24.5 44 6.7 32 32 NW 5 7 29.88 1012 10 16.09344 0 0
6:15 pm 18:15 Sunny 76 24.2 44 6.8 33 33 WNW 5 7 29.88 1012 10 16.09344 0 0
6:35 pm 18:35 Sunny 75 23.8 46 7.5 35 35 NW 3 6 29.88 1012 10 16.09344 0 0
6:55 pm 18:55 Sunny 74 23.1 47 8.4 39 39 NW 3 6 29.88 1012 10 16.09344 0 0
7:15 pm 19:15 Sunny 72 22.1 50 10.2 47 47 Calm 29.91 1013 10 16.09344 0 0
7:35 pm 19:35 Sunny 70 20.9 50 9.9 50 50 WNW 3 6 29.91 1013 10 16.09344 0 0
7:55 pm 19:55 Clear 67 19.7 50 10.2 54 54 NW 3 6 29.91 1013 10 16.09344 0 0
8:15 pm 20:15 Clear 64 17.9 51 10.4 62 62 NNW 5 7 29.94 1014 10 16.09344 0 0
8:35 pm 20:35 Clear 64 18 50 10 60 60 NNW 6 9 29.94 1014 10 16.09344 0 0
8:55 pm 20:55 Clear 61 16.1 51 10.6 70 70 Calm 30 1016 10 16.09344 0 0
9:15 pm 21:15 Clear 60 15.8 52 11.3 75 75 Calm 30 1016 10 16.09344 0 0
9:35 pm 21:35 Clear 59 15.2 52 11 76 76 Calm 30 1016 10 16.09344 0 0
9:55 pm 21:55 Clear 58 14.6 52 11 79 79 Calm 30 1016 10 16.09344 0 0
10:15 pm 22:15 Clear 58 14.2 52 11.1 82 82 Calm 30 1016 10 16.09344 0 0
10:35 pm 22:35 Clear 57 14 52 11.2 83 83 Calm 30 1016 10 16.09344 0 0
10:55 pm 22:55 Clear 58 14.4 52 11.3 82 82 W 3 6 30 1016 10 16.09344 0 0
11:15 pm 23:15 Clear 55 12.9 52 11 88 88 Calm 30 1016 10 16.09344 0 0
11:35 pm 23:35 Clear 55 12.7 51 10.7 88 88 W 3 6 30.06 1018 10 16.09344 0 0
11:55 pm 23:55 Clear 54 12.3 51 10.3 88 88 W 5 7 30.06 1018 10 16.09344 0 0

Powered by AerisWeather